| time (UTC) | temp F | wind direction | speed MPH | gust MPH | rain 1hr in | rain 24hr in | rain mn in | humidity % | barometer mb |
| 20260505124857 | 40 | 109 | 4.0 | 8.0 | 0.00 | 0.03 | 0.01 | 87 | 1012.1 |
| 20260505124521 | 39 | 127 | 4.0 | 9.0 | 0.00 | 0.03 | 0.01 | 87 | 1012.6 |
| 20260505123857 | 40 | 162 | 4.0 | 7.0 | 0.00 | 0.03 | 0.01 | 87 | 1012.1 |
| 20260505123354 | 40 | 69 | 4.0 | 7.0 | 0.00 | 0.03 | 0.01 | 87 | 1012.1 |
| 20260505123025 | 39 | 74 | 5.0 | 8.0 | 0.00 | 0.03 | 0.01 | 85 | 1012.5 |
| 20260505122856 | 40 | 98 | 3.0 | 6.0 | 0.00 | 0.03 | 0.01 | 86 | 1012.1 |
| 20260505122354 | 40 | 102 | 4.0 | 6.0 | 0.00 | 0.03 | 0.01 | 85 | 1011.9 |
| 20260505121853 | 40 | 77 | 3.0 | 6.0 | 0.00 | 0.03 | 0.01 | 84 | 1011.8 |
| 20260505121512 | 40 | 50 | 3.0 | 5.0 | 0.00 | 0.03 | 0.01 | 84 | 1012.2 |
| 20260505121352 | 40 | 98 | 2.0 | 4.0 | 0.00 | 0.03 | 0.01 | 85 | 1011.6 |
| 20260505120850 | 40 | 80 | 2.0 | 4.0 | 0.00 | 0.03 | 0.01 | 84 | 1011.6 |
| 20260505120351 | 40 | 94 | 2.0 | 4.0 | 0.00 | 0.03 | 0.01 | 84 | 1011.6 |
| 20260505120015 | 40 | 76 | 2.0 | 4.0 | 0.00 | 0.03 | 0.01 | 83 | 1012.0 |
| 20260505115845 | 41 | 105 | 2.0 | 5.0 | 0.00 | 0.03 | 0.01 | 83 | 1011.5 |
| 20260505114833 | 41 | 94 | 3.0 | 6.0 | 0.00 | 0.03 | 0.01 | 82 | 1011.5 |
| 20260505114518 | 41 | 123 | 3.0 | 7.0 | 0.00 | 0.03 | 0.01 | 82 | 1012.0 |
| 20260505114327 | 41 | 115 | 2.0 | 6.0 | 0.00 | 0.03 | 0.01 | 82 | 1011.4 |
| 20260505113821 | 41 | 78 | 1.0 | 4.0 | 0.00 | 0.03 | 0.01 | 83 | 1011.5 |
| 20260505113315 | 41 | 104 | 1.0 | 3.0 | 0.00 | 0.03 | 0.01 | 84 | 1011.4 |
| 20260505113022 | 41 | 110 | 0.0 | 3.0 | 0.00 | 0.03 | 0.01 | 84 | 1011.8 |
| 20260505112810 | 41 | 107 | 1.0 | 3.0 | 0.00 | 0.03 | 0.01 | 84 | 1011.3 |
| 20260505112304 | 41 | 111 | 1.0 | 3.0 | 0.00 | 0.03 | 0.01 | 83 | 1011.3 |
| 20260505111757 | 41 | 148 | 0.0 | 3.0 | 0.00 | 0.03 | 0.01 | 84 | 1011.3 |
| 20260505111534 | 41 | 150 | 0.0 | 4.0 | 0.00 | 0.03 | 0.01 | 84 | 1011.6 |
| 20260505111250 | 41 | 156 | 0.0 | 3.0 | 0.00 | 0.03 | 0.01 | 86 | 1011.3 |
| 20260505110750 | 41 | 137 | 0.0 | 3.0 | 0.00 | 0.03 | 0.01 | 87 | 1011.4 |
| 20260505101748 | 41 | 165 | 0.0 | 1.0 | 0.00 | 0.03 | 0.01 | 87 | 1011.3 |
| 20260505101524 | 40 | 165 | 0.0 | 1.0 | 0.00 | 0.03 | 0.01 | 87 | 1011.7 |
| 20260505101247 | 41 | 165 | 0.0 | 1.0 | 0.00 | 0.03 | 0.01 | 87 | 1011.4 |
| 20260505100746 | 41 | 165 | 0.0 | 2.0 | 0.00 | 0.03 | 0.01 | 87 | 1011.3 |
| 20260505100245 | 41 | 165 | 0.0 | 2.0 | 0.00 | 0.03 | 0.01 | 87 | 1011.1 |
| 20260505100029 | 41 | 165 | 0.0 | 2.0 | 0.00 | 0.03 | 0.01 | 86 | 1011.6 |
| 20260505095746 | 41 | 165 | 0.0 | 2.0 | 0.00 | 0.03 | 0.01 | 86 | 1011.1 |
| 20260505095244 | 41 | 165 | 1.0 | 2.0 | 0.00 | 0.03 | 0.01 | 86 | 1011.0 |
| 20260505094745 | 42 | 164 | 1.0 | 3.0 | 0.00 | 0.03 | 0.01 | 86 | 1011.1 |
| 20260505094515 | 41 | 165 | 0.0 | 4.0 | 0.00 | 0.03 | 0.01 | 85 | 1011.7 |
| 20260505094238 | 42 | 164 | 1.0 | 3.0 | 0.00 | 0.03 | 0.01 | 86 | 1011.1 |
| 20260505093226 | 42 | 132 | 0.0 | 2.0 | 0.00 | 0.03 | 0.01 | 84 | 1010.9 |
| 20260505093018 | 41 | 42 | 0.0 | 0.0 | 0.00 | 0.03 | 0.01 | 83 | 1011.3 |
| 20260505092720 | 42 | 14 | 0.0 | 0.0 | 0.00 | 0.03 | 0.01 | 84 | 1010.8 |
| 20260505092214 | 42 | 14 | 0.0 | 0.0 | 0.00 | 0.03 | 0.01 | 83 | 1011.0 |
| 20260505091524 | 42 | 21 | 0.0 | 1.0 | 0.00 | 0.03 | 0.01 | 82 | 1011.6 |
| 20260505091202 | 43 | 14 | 0.0 | 3.0 | 0.00 | 0.03 | 0.01 | 82 | 1011.0 |
| 20260505090656 | 43 | 14 | 0.0 | 3.0 | 0.00 | 0.03 | 0.01 | 82 | 1010.9 |
| 20260505090151 | 43 | 355 | 0.0 | 2.0 | 0.00 | 0.03 | 0.01 | 83 | 1011.0 |
| 20260505090028 | 43 | 360 | 0.0 | 3.0 | 0.00 | 0.03 | 0.01 | 82 | 1011.5 |
| 20260505085644 | 43 | 0 | 0.0 | 3.0 | 0.00 | 0.03 | 0.01 | 83 | 1011.3 |
| 20260505085140 | 43 | 335 | 0.0 | 3.0 | 0.00 | 0.03 | 0.01 | 84 | 1011.4 |
| 20260505084632 | 43 | 326 | 0.0 | 3.0 | 0.00 | 0.03 | 0.01 | 84 | 1011.5 |
| 20260505084528 | 43 | 333 | 0.0 | 3.0 | 0.00 | 0.03 | 0.01 | 83 | 1012.1 |
| 20260505084126 | 43 | 29 | 0.0 | 3.0 | 0.00 | 0.03 | 0.01 | 84 | 1011.5 |
| 20260505083115 | 43 | 44 | 0.0 | 2.0 | 0.00 | 0.03 | 0.01 | 82 | 1011.6 |
| 20260505083017 | 43 | 22 | 0.0 | 1.0 | 0.00 | 0.03 | 0.01 | 81 | 1012.1 |
| 20260505082608 | 44 | 11 | 0.0 | 2.0 | 0.00 | 0.03 | 0.01 | 81 | 1011.8 |
| 20260505082102 | 44 | 11 | 0.0 | 2.0 | 0.00 | 0.03 | 0.01 | 81 | 1011.9 |
| 20260505081557 | 44 | 359 | 0.0 | 2.0 | 0.00 | 0.03 | 0.01 | 82 | 1012.0 |
| 20260505081529 | 44 | 355 | 0.0 | 2.0 | 0.00 | 0.03 | 0.01 | 82 | 1012.4 |
| 20260505081050 | 44 | 359 | 0.0 | 2.0 | 0.00 | 0.03 | 0.01 | 83 | 1011.9 |
| 20260505080038 | 44 | 359 | 0.0 | 2.0 | 0.00 | 0.03 | 0.01 | 82 | 1011.9 |
| 20260505080024 | 44 | 346 | 0.0 | 1.0 | 0.00 | 0.03 | 0.01 | 82 | 1012.3 |
| 20260505075026 | 44 | 338 | 0.0 | 1.0 | 0.00 | 0.03 | 0.01 | 83 | 1011.9 |
| 20260505074526 | 44 | 329 | 0.0 | 3.0 | 0.00 | 0.03 | 0.01 | 82 | 1012.4 |
| 20260505074520 | 44 | 335 | 0.0 | 2.0 | 0.00 | 0.03 | 0.01 | 83 | 1011.9 |
| 20260505074015 | 44 | 322 | 1.0 | 5.0 | 0.00 | 0.03 | 0.01 | 83 | 1011.9 |
| 20260505073509 | 45 | 306 | 1.0 | 5.0 | 0.00 | 0.03 | 0.01 | 83 | 1012.0 |
| 20260505073041 | 44 | 336 | 0.0 | 5.0 | 0.00 | 0.03 | 0.01 | 83 | 1012.5 |
| 20260505073002 | 45 | 342 | 1.0 | 5.0 | 0.00 | 0.03 | 0.01 | 83 | 1012.0 |
| 20260505072456 | 45 | 308 | 1.0 | 5.0 | 0.00 | 0.03 | 0.01 | 84 | 1012.0 |
| 20260505071539 | 44 | 329 | 1.0 | 4.0 | 0.00 | 0.03 | 0.01 | 83 | 1012.5 |
| 20260505071445 | 45 | 342 | 1.0 | 4.0 | 0.00 | 0.03 | 0.01 | 84 | 1012.0 |
| 20260505070938 | 45 | 353 | 0.0 | 3.0 | 0.01 | 0.03 | 0.01 | 85 | 1012.0 |
| 20260505070432 | 45 | 341 | 0.0 | 2.0 | 0.01 | 0.03 | 0.01 | 84 | 1012.1 |
| 20260505070020 | 44 | 335 | 0.0 | 4.0 | 0.01 | 0.03 | 0.01 | 84 | 1012.7 |
| 20260505065928 | 45 | 341 | 1.0 | 4.0 | 0.01 | 0.03 | 0.01 | 84 | 1012.1 |
| 20260505065428 | 45 | 345 | 0.0 | 4.0 | 0.01 | 0.03 | 0.01 | 85 | 1012.1 |
| 20260505064526 | 44 | 5 | 0.0 | 1.0 | 0.01 | 0.03 | 0.01 | 85 | 1012.6 |
| 20260505064430 | 45 | 1 | 0.0 | 1.0 | 0.01 | 0.03 | 0.01 | 85 | 1012.0 |
| 20260505063928 | 45 | 335 | 0.0 | 1.0 | 0.01 | 0.03 | 0.01 | 85 | 1012.0 |
| 20260505063428 | 45 | 352 | 0.0 | 2.0 | 0.01 | 0.03 | 0.01 | 85 | 1012.0 |
| 20260505063028 | 44 | 336 | 0.0 | 4.0 | 0.01 | 0.03 | 0.01 | 84 | 1012.7 |
| 20260505062928 | 45 | 342 | 0.0 | 4.0 | 0.01 | 0.03 | 0.01 | 84 | 1012.1 |
| 20260505062428 | 45 | 326 | 0.0 | 4.0 | 0.01 | 0.03 | 0.01 | 84 | 1012.0 |
| 20260505061930 | 45 | 23 | 0.0 | 3.0 | 0.01 | 0.03 | 0.01 | 83 | 1011.9 |
| 20260505061532 | 45 | 27 | 0.0 | 3.0 | 0.01 | 0.03 | 0.01 | 82 | 1012.6 |
| 20260505061428 | 46 | 1 | 1.0 | 5.0 | 0.01 | 0.03 | 0.01 | 82 | 1012.1 |
| 20260505060928 | 46 | 39 | 2.0 | 5.0 | 0.00 | 0.02 | 0.00 | 81 | 1012.2 |
| 20260505060428 | 46 | 347 | 1.0 | 5.0 | 0.00 | 0.02 | 0.00 | 80 | 1012.4 |
| 20260505060028 | 46 | 324 | 1.0 | 4.0 | 0.00 | 0.02 | 0.00 | 78 | 1013.0 |
| 20260505055929 | 46 | 306 | 1.0 | 4.0 | 0.00 | 0.02 | 0.02 | 78 | 1012.5 |
| 20260505055427 | 46 | 41 | 1.0 | 5.0 | 0.00 | 0.02 | 0.02 | 77 | 1012.5 |
| 20260505054533 | 46 | 349 | 0.0 | 6.0 | 0.00 | 0.02 | 0.02 | 76 | 1013.1 |
| 20260505054421 | 47 | 356 | 1.0 | 6.0 | 0.00 | 0.02 | 0.02 | 76 | 1012.6 |
| 20260505053916 | 47 | 337 | 1.0 | 4.0 | 0.00 | 0.02 | 0.02 | 75 | 1012.5 |
| 20260505053410 | 47 | 343 | 1.0 | 4.0 | 0.00 | 0.02 | 0.02 | 75 | 1012.4 |
| 20260505053034 | 47 | 333 | 0.0 | 4.0 | 0.00 | 0.02 | 0.02 | 74 | 1013.0 |
| 20260505052904 | 47 | 350 | 1.0 | 4.0 | 0.00 | 0.02 | 0.02 | 74 | 1012.5 |
| 20260505051851 | 47 | 349 | 2.0 | 5.0 | 0.00 | 0.02 | 0.02 | 72 | 1012.5 |
| 20260505051536 | 46 | 331 | 1.0 | 5.0 | 0.00 | 0.02 | 0.02 | 71 | 1013.0 |
| 20260505051346 | 47 | 334 | 1.0 | 5.0 | 0.00 | 0.02 | 0.02 | 72 | 1012.5 |
| 20260505050841 | 47 | 359 | 1.0 | 5.0 | 0.00 | 0.02 | 0.02 | 73 | 1012.5 |
| 20260505050334 | 47 | 25 | 0.0 | 4.0 | 0.00 | 0.02 | 0.02 | 74 | 1012.4 |
| 20260505041740 | 47 | 236 | 0.0 | 2.0 | 0.00 | 0.02 | 0.02 | 73 | 1011.9 |
| 20260505041525 | 47 | 342 | 0.0 | 2.0 | 0.00 | 0.02 | 0.02 | 71 | 1012.4 |
| 20260505041234 | 47 | 348 | 0.0 | 2.0 | 0.00 | 0.02 | 0.02 | 71 | 1011.5 |
| 20260505040728 | 47 | 342 | 0.0 | 4.0 | 0.00 | 0.02 | 0.02 | 71 | 1011.4 |
| 20260505040223 | 47 | 329 | 1.0 | 4.0 | 0.00 | 0.02 | 0.02 | 71 | 1011.3 |
| 20260505040021 | 47 | 319 | 0.0 | 4.0 | 0.00 | 0.02 | 0.02 | 70 | 1011.9 |
| 20260505035716 | 47 | 352 | 1.0 | 4.0 | 0.00 | 0.02 | 0.02 | 71 | 1011.3 |
| 20260505035210 | 48 | 340 | 1.0 | 5.0 | 0.00 | 0.02 | 0.02 | 71 | 1011.4 |
| 20260505034705 | 48 | 342 | 2.0 | 6.0 | 0.00 | 0.02 | 0.02 | 71 | 1011.4 |
| 20260505034519 | 47 | 346 | 0.0 | 8.0 | 0.00 | 0.02 | 0.02 | 70 | 1012.2 |
| 20260505034202 | 48 | 48 | 2.0 | 7.0 | 0.00 | 0.02 | 0.02 | 70 | 1011.5 |
| 20260505033702 | 48 | 335 | 2.0 | 7.0 | 0.00 | 0.02 | 0.02 | 70 | 1011.5 |
| 20260505033202 | 48 | 311 | 2.0 | 7.0 | 0.00 | 0.02 | 0.02 | 70 | 1011.4 |
| 20260505033007 | 47 | 352 | 0.0 | 8.0 | 0.00 | 0.02 | 0.02 | 70 | 1012.2 |
| 20260505032701 | 48 | 333 | 2.0 | 7.0 | 0.00 | 0.02 | 0.02 | 69 | 1011.6 |
| 20260505032201 | 48 | 332 | 2.0 | 6.0 | 0.00 | 0.02 | 0.02 | 70 | 1011.4 |
| 20260505031702 | 47 | 319 | 1.0 | 5.0 | 0.00 | 0.02 | 0.02 | 71 | 1011.1 |
| 20260505031505 | 47 | 350 | 1.0 | 9.0 | 0.00 | 0.02 | 0.02 | 71 | 1011.7 |
| 20260505031201 | 47 | 53 | 1.0 | 8.0 | 0.00 | 0.02 | 0.02 | 72 | 1010.9 |
| 20260505030701 | 48 | 306 | 1.0 | 8.0 | 0.00 | 0.02 | 0.02 | 71 | 1010.9 |
| 20260505030022 | 47 | 319 | 1.0 | 9.0 | 0.00 | 0.02 | 0.02 | 71 | 1011.4 |
| 20260505025202 | 48 | 320 | 3.0 | 7.0 | 0.00 | 0.02 | 0.02 | 71 | 1011.0 |
| 20260505024513 | 47 | 331 | 2.0 | 9.0 | 0.01 | 0.02 | 0.02 | 70 | 1011.7 |
| 20260505024203 | 48 | 340 | 2.0 | 8.0 | 0.01 | 0.02 | 0.02 | 71 | 1011.1 |
| 20260505023159 | 48 | 334 | 2.0 | 8.0 | 0.02 | 0.02 | 0.02 | 70 | 1011.0 |
| 20260505023020 | 48 | 346 | 2.0 | 9.0 | 0.02 | 0.02 | 0.02 | 69 | 1011.5 |
| 20260505022700 | 48 | 309 | 2.0 | 8.0 | 0.02 | 0.02 | 0.02 | 71 | 1011.0 |
| 20260505022200 | 48 | 359 | 3.0 | 9.0 | 0.02 | 0.02 | 0.02 | 70 | 1010.9 |
| 20260505021655 | 49 | 8 | 3.0 | 9.0 | 0.02 | 0.02 | 0.02 | 70 | 1010.9 |
| 20260505021504 | 48 | 304 | 3.0 | 10.0 | 0.02 | 0.02 | 0.02 | 68 | 1011.4 |
| 20260505021147 | 49 | 345 | 3.0 | 9.0 | 0.02 | 0.02 | 0.02 | 69 | 1010.9 |
| 20260505020642 | 49 | 359 | 3.0 | 12.0 | 0.02 | 0.02 | 0.02 | 69 | 1011.1 |
| 20260505020135 | 49 | 342 | 3.0 | 12.0 | 0.02 | 0.02 | 0.02 | 69 | 1011.4 |
| 20260505020008 | 49 | 337 | 3.0 | 13.0 | 0.02 | 0.02 | 0.02 | 69 | 1011.9 |
| 20260505015628 | 49 | 284 | 3.0 | 11.0 | 0.02 | 0.02 | 0.02 | 68 | 1011.3 |
| 20260505015122 | 50 | 359 | 3.0 | 11.0 | 0.02 | 0.02 | 0.02 | 67 | 1011.0 |
| 20260505014616 | 50 | 27 | 3.0 | 9.0 | 0.01 | 0.01 | 0.01 | 64 | 1010.8 |
| 20260505014512 | 50 | 355 | 3.0 | 13.0 | 0.01 | 0.01 | 0.01 | 64 | 1011.4 |
| 20260505014110 | 50 | 354 | 3.0 | 12.0 | 0.01 | 0.01 | 0.01 | 63 | 1010.9 |
| 20260505013058 | 51 | 331 | 2.0 | 7.0 | 0.00 | 0.00 | 0.00 | 63 | 1011.0 |
| 20260505013015 | 50 | 342 | 2.0 | 8.0 | 0.00 | 0.00 | 0.00 | 61 | 1011.5 |
| 20260505012552 | 51 | 326 | 3.0 | 6.0 | 0.00 | 0.00 | 0.00 | 60 | 1011.0 |
| 20260505012047 | 52 | 49 | 3.0 | 12.0 | 0.00 | 0.00 | 0.00 | 59 | 1010.9 |
| 20260505011540 | 54 | 46 | 3.0 | 12.0 | 0.00 | 0.00 | 0.00 | 54 | 1010.9 |
| 20260505011524 | 53 | 338 | 3.0 | 13.0 | 0.00 | 0.00 | 0.00 | 52 | 1011.5 |
| 20260505011034 | 54 | 302 | 4.0 | 16.0 | 0.00 | 0.00 | 0.00 | 50 | 1010.4 |
| 20260505010527 | 55 | 262 | 5.0 | 16.0 | 0.00 | 0.00 | 0.00 | 48 | 1010.2 |
| 20260505010022 | 56 | 53 | 4.0 | 12.0 | 0.00 | 0.00 | 0.00 | 42 | 1010.0 |
| 20260505010008 | 56 | 55 | 4.0 | 13.0 | 0.00 | 0.00 | 0.00 | 42 | 1010.7 |
| 20260505005516 | 57 | 314 | 4.0 | 11.0 | 0.00 | 0.00 | 0.00 | 41 | 1010.0 |
| 20260505005010 | 57 | 342 | 3.0 | 11.0 | 0.00 | 0.00 | 0.00 | 38 | 1009.9 |
| 20260505004509 | 58 | 30 | 4.0 | 12.0 | 0.00 | 0.00 | 0.00 | 37 | 1010.3 |
| 20260505004505 | 58 | 356 | 3.0 | 11.0 | 0.00 | 0.00 | 0.00 | 37 | 1009.7 |
| 20260505003452 | 58 | 348 | 2.0 | 6.0 | 0.00 | 0.00 | 0.00 | 35 | 1009.3 |
| 20260505003018 | 58 | 55 | 0.0 | 13.0 | 0.00 | 0.00 | 0.00 | 35 | 1009.7 |
| 20260505002946 | 58 | 337 | 3.0 | 12.0 | 0.00 | 0.00 | 0.00 | 36 | 1009.1 |
| 20260505002441 | 59 | 5 | 4.0 | 14.0 | 0.00 | 0.00 | 0.00 | 35 | 1009.2 |
| 20260505001935 | 59 | 335 | 4.0 | 14.0 | 0.00 | 0.00 | 0.00 | 35 | 1008.9 |
| 20260505001518 | 59 | 319 | 2.0 | 11.0 | 0.00 | 0.00 | 0.00 | 34 | 1009.4 |
| 20260505001428 | 59 | 33 | 3.0 | 10.0 | 0.00 | 0.00 | 0.00 | 35 | 1008.7 |
| 20260505000417 | 60 | 359 | 3.0 | 16.0 | 0.00 | 0.00 | 0.00 | 34 | 1008.5 |
| 20260505000021 | 61 | 5 | 4.0 | 17.0 | 0.00 | 0.00 | 0.00 | 32 | 1009.2 |
| 20260504235910 | 61 | 83 | 4.0 | 16.0 | 0.00 | 0.00 | 0.00 | 32 | 1008.6 |
| 20260504235404 | 62 | 22 | 3.0 | 12.0 | 0.00 | 0.00 | 0.00 | 32 | 1008.5 |
| 20260504234858 | 62 | 20 | 3.0 | 12.0 | 0.00 | 0.00 | 0.00 | 32 | 1008.5 |
| 20260504234509 | 62 | 330 | 4.0 | 13.0 | 0.00 | 0.00 | 0.00 | 31 | 1008.9 |
| 20260504234352 | 62 | 343 | 2.0 | 12.0 | 0.00 | 0.00 | 0.00 | 32 | 1008.3 |
| 20260504233340 | 62 | 32 | 2.0 | 4.0 | 0.00 | 0.00 | 0.00 | 34 | 1008.6 |
| 20260504233013 | 61 | 76 | 2.0 | 4.0 | 0.00 | 0.00 | 0.00 | 34 | 1009.2 |
| 20260504232328 | 61 | 51 | 1.0 | 3.0 | 0.00 | 0.00 | 0.00 | 36 | 1008.8 |
| 20260504231822 | 61 | 89 | 1.0 | 4.0 | 0.00 | 0.00 | 0.00 | 35 | 1008.6 |
| 20260504231520 | 61 | 93 | 1.0 | 4.0 | 0.00 | 0.00 | 0.00 | 33 | 1009.2 |
| 20260504231316 | 61 | 88 | 1.0 | 4.0 | 0.00 | 0.00 | 0.00 | 34 | 1008.6 |
| 20260504230026 | 61 | 209 | 3.0 | 10.0 | 0.00 | 0.00 | 0.00 | 37 | 1009.2 |
| 20260504225757 | 61 | 112 | 3.0 | 9.0 | 0.00 | 0.00 | 0.00 | 40 | 1008.7 |
| 20260504225252 | 60 | 254 | 4.0 | 11.0 | 0.00 | 0.00 | 0.00 | 39 | 1008.6 |
| 20260504224746 | 60 | 132 | 3.0 | 11.0 | 0.00 | 0.00 | 0.00 | 41 | 1008.7 |
| 20260504224523 | 59 | 182 | 3.0 | 10.0 | 0.00 | 0.00 | 0.00 | 40 | 1009.3 |
| 20260504223734 | 59 | 140 | 4.0 | 13.0 | 0.00 | 0.00 | 0.00 | 42 | 1008.9 |
| 20260504223228 | 59 | 58 | 4.0 | 13.0 | 0.00 | 0.00 | 0.00 | 43 | 1008.9 |
| 20260504223010 | 58 | 149 | 7.0 | 15.0 | 0.00 | 0.00 | 0.00 | 41 | 1009.6 |
| 20260504222722 | 58 | 264 | 4.0 | 13.0 | 0.00 | 0.00 | 0.00 | 44 | 1008.9 |
| 20260504222216 | 59 | 46 | 2.0 | 13.0 | 0.00 | 0.00 | 0.00 | 42 | 1009.3 |
| 20260504221521 | 58 | 150 | 1.0 | 8.0 | 0.00 | 0.00 | 0.00 | 46 | 1009.7 |
| 20260504221204 | 59 | 173 | 5.0 | 19.0 | 0.00 | 0.00 | 0.00 | 43 | 1009.1 |
| 20260504220658 | 60 | 194 | 5.0 | 19.0 | 0.00 | 0.00 | 0.00 | 41 | 1009.8 |
| 20260504220152 | 61 | 240 | 4.0 | 12.0 | 0.00 | 0.00 | 0.00 | 34 | 1009.6 |
| 20260504220022 | 61 | 263 | 1.0 | 17.0 | 0.00 | 0.00 | 0.00 | 31 | 1009.9 |
| 20260504215647 | 62 | 307 | 6.0 | 16.0 | 0.00 | 0.00 | 0.00 | 33 | 1009.4 |
| 20260504215143 | 63 | 297 | 6.0 | 16.0 | 0.00 | 0.00 | 0.00 | 28 | 1009.2 |
| 20260504214643 | 64 | 299 | 5.0 | 13.0 | 0.00 | 0.00 | 0.00 | 25 | 1008.7 |
| 20260504214521 | 64 | 305 | 5.0 | 14.0 | 0.00 | 0.00 | 0.00 | 24 | 1009.1 |
| 20260504214143 | 65 | 277 | 4.0 | 13.0 | 0.00 | 0.00 | 0.00 | 24 | 1008.3 |
| 20260504213028 | 65 | 30 | 1.0 | 8.0 | 0.00 | 0.00 | 0.00 | 22 | 1008.6 |
| 20260504212643 | 66 | 311 | 1.0 | 7.0 | 0.00 | 0.00 | 0.00 | 22 | 1007.8 |
| 20260504211643 | 67 | 247 | 1.0 | 3.0 | 0.00 | 0.00 | 0.00 | 19 | 1008.0 |
| 20260504211512 | 66 | 176 | 1.0 | 4.0 | 0.00 | 0.00 | 0.00 | 20 | 1008.5 |
| 20260504211144 | 67 | 149 | 1.0 | 4.0 | 0.00 | 0.00 | 0.00 | 22 | 1007.8 |
| 20260504210141 | 68 | 246 | 2.0 | 6.0 | 0.00 | 0.00 | 0.00 | 22 | 1008.0 |
| 20260504210018 | 67 | 249 | 1.0 | 7.0 | 0.00 | 0.00 | 0.00 | 19 | 1008.6 |
| 20260504205642 | 68 | 243 | 2.0 | 6.0 | 0.00 | 0.00 | 0.00 | 20 | 1008.0 |
| 20260504205142 | 69 | 330 | 2.0 | 6.0 | 0.00 | 0.00 | 0.00 | 19 | 1008.1 |
| 20260504204638 | 69 | 217 | 2.0 | 6.0 | 0.00 | 0.00 | 0.00 | 21 | 1008.2 |
| 20260504204526 | 69 | 194 | 2.0 | 6.0 | 0.00 | 0.00 | 0.00 | 21 | 1008.8 |
| 20260504204139 | 69 | 165 | 2.0 | 5.0 | 0.00 | 0.00 | 0.00 | 22 | 1008.2 |
| 20260504203639 | 69 | 158 | 2.0 | 5.0 | 0.00 | 0.00 | 0.00 | 23 | 1008.3 |
| 20260504203026 | 67 | 272 | 1.0 | 10.0 | 0.00 | 0.00 | 0.00 | 21 | 1009.2 |
| 20260504202133 | 67 | 286 | 3.0 | 9.0 | 0.00 | 0.00 | 0.00 | 20 | 1008.7 |
| 20260504201528 | 66 | 188 | 1.0 | 9.0 | 0.00 | 0.00 | 0.00 | 22 | 1009.2 |
| 20260504201121 | 66 | 340 | 3.0 | 10.0 | 0.00 | 0.00 | 0.00 | 20 | 1008.7 |
| 20260504200615 | 66 | 20 | 4.0 | 14.0 | 0.00 | 0.00 | 0.00 | 22 | 1008.6 |
| 20260504200029 | 66 | 337 | 5.0 | 18.0 | 0.00 | 0.00 | 0.00 | 20 | 1009.2 |
| 20260504195603 | 67 | 294 | 6.0 | 17.0 | 0.00 | 0.00 | 0.00 | 19 | 1008.8 |
| 20260504195057 | 68 | 261 | 3.0 | 13.0 | 0.00 | 0.00 | 0.00 | 18 | 1008.6 |
| 20260504194521 | 68 | 243 | 1.0 | 8.0 | 0.00 | 0.00 | 0.00 | 17 | 1009.1 |
| 20260504194050 | 69 | 127 | 3.0 | 7.0 | 0.00 | 0.00 | 0.00 | 18 | 1008.6 |
| 20260504193547 | 69 | 332 | 3.0 | 7.0 | 0.00 | 0.00 | 0.00 | 17 | 1008.6 |
| 20260504193047 | 69 | 264 | 3.0 | 10.0 | 0.00 | 0.00 | 0.00 | 18 | 1008.7 |
| 20260504193022 | 69 | 294 | 2.0 | 11.0 | 0.00 | 0.00 | 0.00 | 17 | 1009.2 |
| 20260504192045 | 70 | 206 | 3.0 | 7.0 | 0.00 | 0.00 | 0.00 | 17 | 1008.8 |
| 20260504191545 | 71 | 68 | 3.0 | 11.0 | 0.00 | 0.00 | 0.00 | 16 | 1008.9 |
| 20260504191538 | 70 | 140 | 4.0 | 12.0 | 0.00 | 0.00 | 0.00 | 16 | 1009.4 |
| 20260504191045 | 70 | 117 | 4.0 | 11.0 | 0.00 | 0.00 | 0.00 | 17 | 1009.1 |
| 20260504190543 | 70 | 262 | 4.0 | 10.0 | 0.00 | 0.00 | 0.00 | 17 | 1009.1 |
| 20260504190045 | 70 | 309 | 4.0 | 10.0 | 0.00 | 0.00 | 0.00 | 18 | 1009.2 |
| 20260504190027 | 70 | 262 | 2.0 | 11.0 | 0.00 | 0.00 | 0.00 | 17 | 1009.6 |
| 20260504185543 | 69 | 124 | 3.0 | 10.0 | 0.00 | 0.00 | 0.00 | 20 | 1009.2 |
| 20260504185043 | 69 | 333 | 2.0 | 7.0 | 0.00 | 0.00 | 0.00 | 17 | 1009.3 |
| 20260504184542 | 69 | 131 | 2.0 | 7.0 | 0.00 | 0.00 | 0.00 | 19 | 1009.3 |
| 20260504184516 | 69 | 125 | 2.0 | 7.0 | 0.00 | 0.00 | 0.00 | 19 | 1009.7 |
| 20260504184043 | 69 | 150 | 2.0 | 6.0 | 0.00 | 0.00 | 0.00 | 17 | 1009.6 |
| 20260504183044 | 70 | 311 | 3.0 | 10.0 | 0.00 | 0.00 | 0.00 | 18 | 1009.8 |
| 20260504183036 | 69 | 213 | 2.0 | 11.0 | 0.00 | 0.00 | 0.00 | 18 | 1010.2 |
| 20260504182539 | 70 | 250 | 4.0 | 9.0 | 0.00 | 0.00 | 0.00 | 19 | 1009.9 |
| 20260504182039 | 69 | 255 | 4.0 | 10.0 | 0.00 | 0.00 | 0.00 | 19 | 1010.0 |
| 20260504181540 | 69 | 221 | 3.0 | 10.0 | 0.00 | 0.00 | 0.00 | 19 | 1010.2 |
| 20260504181528 | 68 | 175 | 4.0 | 11.0 | 0.00 | 0.00 | 0.00 | 18 | 1010.5 |
| 20260504181039 | 69 | 232 | 1.0 | 6.0 | 0.00 | 0.00 | 0.00 | 19 | 1010.2 |
| 20260504180540 | 67 | 332 | 2.0 | 5.0 | 0.00 | 0.00 | 0.00 | 21 | 1010.0 |
| 20260504180038 | 66 | 167 | 3.0 | 9.0 | 0.00 | 0.00 | 0.00 | 21 | 1010.2 |
| 20260504180026 | 66 | 147 | 1.0 | 10.0 | 0.00 | 0.00 | 0.00 | 21 | 1010.7 |
| 20260504175540 | 66 | 283 | 5.0 | 11.0 | 0.00 | 0.00 | 0.00 | 18 | 1010.3 |
| 20260504175039 | 67 | 175 | 5.0 | 12.0 | 0.00 | 0.00 | 0.00 | 19 | 1010.3 |
| 20260504174539 | 66 | 177 | 4.0 | 12.0 | 0.00 | 0.00 | 0.00 | 22 | 1010.4 |
| 20260504174530 | 66 | 200 | 3.0 | 13.0 | 0.00 | 0.00 | 0.00 | 21 | 1010.9 |
| 20260504174040 | 67 | 242 | 5.0 | 13.0 | 0.00 | 0.00 | 0.00 | 21 | 1010.7 |
| 20260504173535 | 67 | 288 | 4.0 | 13.0 | 0.00 | 0.00 | 0.00 | 20 | 1010.4 |
| 20260504173035 | 68 | 201 | 3.0 | 8.0 | 0.00 | 0.00 | 0.00 | 21 | 1010.5 |
| 20260504173018 | 68 | 107 | 3.0 | 10.0 | 0.00 | 0.00 | 0.00 | 20 | 1011.0 |
| 20260504172536 | 68 | 261 | 4.0 | 11.0 | 0.00 | 0.00 | 0.00 | 19 | 1010.7 |
| 20260504172037 | 68 | 252 | 5.0 | 13.0 | 0.00 | 0.00 | 0.00 | 23 | 1010.8 |
| 20260504171524 | 67 | 231 | 6.0 | 14.0 | 0.00 | 0.00 | 0.00 | 20 | 1011.1 |
| 20260504171036 | 68 | 266 | 3.0 | 9.0 | 0.00 | 0.00 | 0.00 | 20 | 1010.9 |
| 20260504151012 | 59 | 337 | 6.0 | 13.0 | 0.00 | 0.00 | 0.00 | 31 | 1011.8 |
| 20260504150507 | 59 | 240 | 6.0 | 16.0 | 0.00 | 0.00 | 0.00 | 30 | 1011.9 |
| 20260504140955 | 59 | 0 | 3.0 | 9.0 | 0.00 | 0.00 | 0.00 | 32 | 1011.3 |
| 20260504140456 | 58 | 285 | 2.0 | 9.0 | 0.00 | 0.00 | 0.00 | 32 | 1011.3 |